Regional Weather Roundup
Issued by NWS

Home | Current Version | Previous Version | Text Only | Print | Product List | Glossary Off
Versions: 1 2 3 4 5 6 7 8 9 10 11 12 13 14 15 16 17 18 19 20 21 22 23 24 25 26 27 28 29 30 31 32 33 34 35 36 37 38 39 40 41 42 43 44 45 46 47 48 49 50

000
ASUS43 KBIS 190410
RWRND

NORTH DAKOTA REGIONAL WEATHER ROUNDUP
NATIONAL WEATHER SERVICE BISMARCK ND
1000 PM CST THU DEC 18 2014

NOTE: "FAIR" INDICATES FEW OR NO CLOUDS BELOW 12,000 FEET WITH NO
SIGNIFICANT WEATHER AND/OR OBSTRUCTIONS TO VISIBILITY.


NDZ001>003-009>011-017-190500-
NORTHWEST NORTH DAKOTA

CITY           SKY/WX    TMP DP  RH WIND       PRES   REMARKS
WILLISTON      CLOUDY    28  27  96 S3        29.92F FOG
MINOT          CLOUDY    24  20  84 E3        29.96F
MINOT AFB      CLOUDY    23  23 100 E5        29.96F WCI  17
$$

NDZ018>021-031>035-040>046-190500-
SOUTHWEST NORTH DAKOTA

CITY           SKY/WX    TMP DP  RH WIND       PRES   REMARKS
BISMARCK       CLOUDY    28  26  92 S5        30.01F
DICKINSON      CLEAR     24  20  84 SW6       29.91S WCI  17
GARRISON         N/A     28  25  88 S6        29.96S
HETTINGER ARPT CLEAR     22  19  89 CALM      29.96S
$$

NDZ004>008-012>016-024-026-027-054-190500-
NORTHEAST NORTH DAKOTA

CITY           SKY/WX    TMP DP  RH WIND       PRES   REMARKS
GRAND FORKS    CLOUDY    20  16  84 S12       30.14F WCI   8
GRND FRKS AFB  CLOUDY    19  19  99 S8        30.14S WCI   9
DEVILS LAKE    CLOUDY    21  14  73 S10       30.02F WCI  10
$$

NDZ022-023-025-028>030-036>039-047>053-190500-
SOUTHEAST NORTH DAKOTA

CITY           SKY/WX    TMP DP  RH WIND       PRES   REMARKS
FARGO          CLOUDY    21  16  81 S13       30.16S WCI   9
JAMESTOWN      CLOUDY    23  21  92 S12       30.05F WCI  12
$$




USA.gov is the U.S. government's official web portal to all federal, state and local government web resources and services.